{"data":{"norad_id":58377,"intl_designator":"2023-178D","name":"STARLINK-30914","alt_names":[],"object_type":"PAYLOAD","status":"ACTIVE","operator":null,"country":"US","launch_date":"2023-11-20","launch_site_code":"AFWTR","launch_vehicle":null,"mission":null,"orbit_class":"UNKNOWN","rcs_meters":null,"size_class":null,"mass_kg":null,"dimensions":null,"purposes":["comms"],"wikipedia_slug":null,"has_3d_model":false,"image_url":null,"decayed_at":null,"tle_current":{"epoch":"2026-05-24T21:37:26.691168Z","epoch_age_seconds":80710,"freshness":"FRESH","line1":"1 58377U 23178D   26144.90100337 -.00001835  00000+0 -43184-4 0  9993","line2":"2 58377  53.1601   6.0809 0000970  70.7982 289.3126 15.34400150141572","mean_motion":15.3440015,"eccentricity":9.7e-5,"inclination_deg":53.1601,"raan_deg":6.0809,"arg_perigee_deg":70.7982,"mean_anomaly_deg":289.3126,"bstar":-4.3184e-5,"rev_number":14157,"period_min":93.847748906959,"perigee_km":462.03923291548,"apogee_km":463.36635583558,"semimajor_km":6840.8397943755,"source":"CELESTRAK","updated_at":"2026-05-25T13:38:18.612060Z"}}}